GW6753 Weather Reports


time (UTC)temp
C
wind
direction
speed
KPH
gust
KPH
rain 1hr
cm
rain 24hr
cm
rain mn
cm
humidity
%
barometer
mb
20260505150149 12 340 3.2 6.4 0.00 0.00 0.00 48 874.9
20260505140132 11 309 1.6 3.2 0.00 0.00 0.00 53 874.5
20260505130127 10 22 0.0 4.8 0.00 0.00 0.00 57 873.8
20260505120138 10 73 3.2 8.0 0.00 0.00 0.00 57 873.7
20260505110117 10 71 3.2 8.0 0.00 0.00 0.00 55 873.6
20260505100139 11 84 3.2 8.0 0.00 0.00 0.00 54 873.5
20260505090113 11 74 4.8 8.0 0.00 0.00 0.00 53 873.6
20260505080153 11 105 6.4 12.9 0.00 0.00 0.00 52 873.4
20260505070123 11 90 3.2 8.0 0.00 0.00 0.00 51 873.4
20260505060137 11 333 3.2 9.7 0.00 0.00 0.00 51 873.1
20260505052731 11 14 3.2 14.5 0.00 0.00 0.00 54 873.4
20260505040156 11 5 4.8 12.9 0.00 0.00 0.00 58 873.2
20260505030140 12 352 4.8 9.7 0.00 0.00 0.00 57 872.9
20260505020145 13 84 4.8 12.9 0.00 0.00 0.00 52 872.9
20260505010138 15 311 9.7 22.5 0.00 0.00 0.00 46 873.2
20260505000111 15 334 9.7 22.5 0.00 0.00 0.00 43 873.4
20260504230119 15 327 9.7 25.7 0.00 0.00 0.00 38 873.4
20260504220115 15 322 11.3 27.4 0.00 0.00 0.00 38 873.8
20260504210125 14 333 9.7 24.1 0.00 0.00 0.00 37 873.8
20260504200131 15 338 9.7 24.1 0.00 0.00 0.00 38 874.0
20260504190110 14 289 9.7 22.5 0.00 0.00 0.00 40 874.0
20260504180150 14 27 6.4 19.3 0.00 0.00 0.00 45 874.0
20260504170136 13 284 8.0 16.1 0.00 0.00 0.00 47 873.8
20260504160103 13 249 3.2 8.0 0.00 0.00 0.00 48 874.0